GFSGBSN_prec_radar_195.txt.gz
Reflectivity
-20 -20 -20 -20 -20 -20 -20 -20 -20 -20 -20 -20 -20 -20 -20 -20 -20 -20 -20 -20 -20 -20 -20 -20 -20 -20 -20 -20 -20 -20 -20 -20 -20 -20 -20 -20 -20 -20 -20 -20 -20 -20 -20 -20 -20 -20 -20
-20 -20 -20 -20 -20 -20 -20 -20 -20 -20 -20 -20 -20 -20 -20 -20 -20 -20 -20 -20 -20 -20 -20 -20 -20 -20 -20 -20 -20 -20 -20 -20 -20 -20 -20 -20 -20 -20 -20 -20 -20 -20 -20 -20 -20 -20 -20
-20 -20 -20 -20 -20 -20 -20 -20 -20 -20 -20 -20 -20 -20 -20 -20 -20 -20 -20 -20 -20 -20 -20 -20 -20 -20 -20 -20 -20 -20 -20 -20 -20 -20 -20 -20 -20 -20 -20 -20 -20 -20 -20 -20 -20 -20 -20
-20 -20 -20 -20 -20 -16 -20 -20 -20 -20 -20 -20 -20 -20 -20 -20 -20 -20 -20 -20 -20 -20 -20 -20 -20 -20 -20 -20 -20 -20 -20 -20 -20 -20 -20 -20 -20 -20 -20 -20 -20 -20 -20 -20 -20 -20 -20
-20 -20 -20 -20 -20 -20 -20 -20 -20 -20 -20 -20 -20 -20 -20 -20 -20 -20 -20 -20 -20 -20 -20 -20 -20 -20 -20 -20 -20 -20 -20 -20 -20 -20 -20 -20 -20 -20 -20 -20 -20 -20 -20 -20 -20 -20 -20
-20 -20 -20 -20 -20 -20 -20 -20 -20 -20 -20 -20 -20 -20 -20 -20 -20 -20 -20 -20 -20 -20 -20 -20 -20 -20 -20 -20 -20 -20 -20 -20 -20 -20 -20 -20 -20 -20 -20 -20 -20 -20 -20 -20 -20 -20 -20
-20 -20 -20 -20 -20 -20 -20 -20 -20 -20 -20 -20 -20 -20 -20 -20 -20 -20 -20 -20 -20 -20 -20 -20 -20 -20 -20 -20 -20 -20 -20 -20 -20 -20 -20 -20 -20 -20 -20 -20 -20 -20 -20 -20 -20 -20 -20
-20 -20 -20 -20 -20 -20 -20 -20 -20 -20 -20 -20 -20 -20 -1 4 -20 -20 -20 -20 -20 -20 -20 -20 -20 -20 -20 -20 -20 -20 -20 -20 -20 -20 -20 -20 -20 -20 -20 -20 -20 -20 -20 -20 -20 -20 -20
-20 -20 -20 -20 -20 -20 -20 -20 -20 -20 -20 -20 -20 -15 7 -20 -20 -20 -20 -20 -20 -20 -20 -20 -20 -20 -20 -20 -20 -20 -20 -20 -20 -20 -20 -20 -20 -20 -20 -20 -20 -20 -20 -20 -20 -20 -20
-20 -20 -20 -20 -20 -20 -20 -20 -20 -20 -20 -20 -20 -20 -20 2 -20 -20 -20 -20 -20 -20 -20 -20 -20 -20 -20 -20 -20 -20 -20 -20 -20 -20 -20 -20 -20 -20 -20 -20 -20 -20 -20 -20 -20 -20 -20
-14 -20 -20 -20 -20 -20 -20 -20 -20 -20 -20 -20 -20 -20 10 -8 -20 -20 -20 -20 -20 -20 -20 -20 -20 -20 -20 -20 -20 -20 -20 -20 -20 -20 -20 -20 -20 -20 -20 -20 -20 -20 -20 -20 -20 -20 -20
-5 -20 -20 -20 -20 7 -20 -20 -20 -20 7 -12 -18 1 19 -19 -19 -14 -20 -19 -20 -20 -20 -20 -20 -20 -20 -20 -20 -20 -20 -20 -20 -20 -20 -20 -20 -20 -20 -20 -20 -20 -20 -20 -20 -20 -20
-10 1 0 2 3 17 2 14 -20 -3 18 16 9 24 4 -9 -4 21 -3 6 -19 -20 -20 -20 -20 -20 -20 -20 -20 -20 -20 -20 -20 -20 -20 -20 -20 -20 -20 -20 -20 -20 -20 -20 -20 -20 -20
11 -7 18 -14 -17 24 25 23 16 -2 7 21 24 30 25 8 20 3 28 23 -5 -20 -20 -20 -20 -20 -20 -20 -20 -20 -20 -20 -20 -20 -20 -20 -20 -20 -20 -20 -20 -20 -20 -20 -20 -20 -20
18 15 -4 19 19 18 24 1 13 -7 9 26 36 36 25 28 9 27 25 18 -18 -20 -20 -20 -20 -20 -20 -20 -20 -20 -20 -20 -20 -20 -20 -20 -20 -20 -20 -20 -20 -20 -20 -20 -20 -20 -20
-6 -7 13 -13 15 21 20 22 22 19 27 30 35 32 27 27 25 24 22 20 -16 -20 -20 -20 4 -2 -8 -16 -17 -20 -20 -20 -20 -20 -20 -20 -20 -20 -20 -20 -20 -20 -20 -20 -20 -20 -20
8 -10 -4 12 11 20 8 14 12 30 22 21 36 33 31 35 29 31 22 0 -11 20 11 -18 -16 -3 -16 -9 -11 -20 -20 -20 -20 -20 -20 -20 -20 -20 -20 -20 -20 -20 -20 -20 -20 -20 -20
-19 -12 1 9 -20 -11 27 14 19 22 17 26 31 29 30 30 23 28 21 14 8 21 7 -5 -18 -17 -20 -20 -20 -20 -20 -5 0 -15 -20 -20 -20 -20 -20 -20 -20 -20 -20 -20 -20 -20 -20
-20 -14 7 11 19 -6 10 24 16 17 14 15 23 30 38 32 29 26 27 18 12 12 6 -4 9 -4 5 -11 -20 -20 -20 -18 4 3 -17 -20 -20 -20 -20 -20 -20 -20 -20 -20 -20 -7 -18
-20 -20 -19 5 -0 21 19 14 24 20 19 6 23 33 40 33 31 26 18 15 23 16 20 6 8 16 18 -20 -20 -20 -20 -6 -13 -7 -6 5 -11 -20 -20 -20 -20 -20 -20 -20 -20 4 6
-20 -20 -20 -20 -5 1 12 20 21 29 24 6 21 25 28 23 29 21 4 24 24 30 26 17 20 -10 -0 -19 -20 -20 -20 -20 -20 -20 -18 6 8 -8 -20 -20 -20 -20 -20 -20 -20 -20 -20
-20 -20 -20 -20 -17 -14 17 19 24 30 22 10 14 22 33 19 22 21 31 31 25 25 29 16 9 5 12 -3 -3 -20 -20 -20 -20 -20 -20 -20 -20 -20 -20 -20 -20 -20 -20 -20 -20 -20 -20
-20 -20 -15 9 17 23 25 25 30 30 26 15 26 26 24 35 37 36 30 24 23 20 17 10 11 10 9 10 2 -20 -20 -20 -20 -20 -20 7 9 10 -18 -20 -5 7 -20 -20 -20 -20 -20
17 20 21 26 28 28 29 32 30 29 28 19 29 30 32 27 36 34 28 23 15 8 -7 20 16 9 -16 -2 -5 -20 -20 -20 -20 -20 -20 -20 1 12 -1 -15 15 -20 -20 -20 -20 -20 -20
31 28 27 23 28 32 39 35 37 36 37 37 34 35 35 27 34 32 27 21 22 23 23 12 4 -1 -3 -13 -20 -20 -20 -20 -20 -20 -20 -20 -20 11 21 17 5 -20 -20 -20 -20 -20 -20
32 30 28 32 29 30 31 37 42 39 40 31 28 33 28 24 20 19 29 18 12 7 -2 -5 -1 -7 -20 -15 -20 -20 -19 -20 -20 -20 -20 -20 -20 9 15 17 -15 -20 -20 -20 -6 -20 -20
35 32 33 37 40 38 37 37 36 34 32 30 31 28 25 12 16 13 13 13 10 4 -4 -14 -18 -20 -20 -9 -20 -20 -20 -20 -20 -20 -20 -20 -13 2 -19 12 1 -9 -15 -20 8 -5 -11
33 34 35 35 35 35 35 35 33 32 26 26 31 27 13 9 12 7 -3 -3 1 -8 -18 -20 -20 -20 -20 -20 -20 -20 -19 -20 -17 -20 -20 -20 -20 -20 2 13 4 -20 -20 21 6 18 -2
35 33 31 31 32 30 31 26 22 20 16 10 9 2 -4 -15 -20 -20 -20 -20 -20 -20 -20 -20 -20 -20 -20 -20 -20 -20 -6 -20 -13 -20 -10 -13 10 13 19 11 -20 -11 13 26 16 20 23

GFSGBSN_prec_radar_198.txt.gz
Reflectivity
-20 -20 -20 -20 -20 -20 -20 -20 -20 -20 -20 -20 -20 -20 -20 -20 -20 -20 -20 -20 -20 -20 -20 -20 -20 -20 -20 -20 -20 -20 -20 -20 -20 -20 -20 -20 -20 -20 -20 -20 -20 -20 -20 -20 -20 -20 -20
-20 -20 -20 -20 -20 -20 -20 -20 -20 -20 -20 -20 -20 -20 -20 -18 -20 -20 -20 -20 -20 -20 -20 -20 -20 -20 -20 -20 -20 -20 -20 -20 -20 -20 -20 -20 -20 -20 -20 -20 -20 -20 -20 -20 -20 -20 -20
-20 -20 -20 -20 -20 -20 -20 -20 -20 -20 -20 -20 -20 -20 -20 -20 -20 -20 -20 -20 -20 -20 -20 -20 -20 -20 -20 -20 -20 -20 -20 -20 -20 -20 -20 -20 -20 -20 -20 -20 -20 -20 -20 -20 -20 -20 -20
-20 -20 -20 -20 -20 -20 -20 -20 -20 -20 -20 -20 -20 -20 -20 -20 -20 -20 -20 -20 -20 -20 -20 -20 -20 -20 -20 -20 -20 -20 -20 -20 -20 -20 -20 -20 -20 -20 -20 -20 -20 -20 -20 -20 -20 -20 -20
-20 -20 -20 -20 -20 -20 -20 -20 -20 -15 -3 -20 -20 -20 -20 -20 -12 -20 -20 -20 -20 -20 -20 -20 -20 -20 -20 -20 -20 -20 -20 -20 -20 -20 -20 -20 -20 -20 -20 -20 -20 -20 -20 -20 -20 -20 -20
-20 -20 -20 -20 -20 -20 -20 -20 -20 -20 -20 -20 -20 -20 -20 -20 -20 -20 -20 -20 -20 -20 -20 -20 -20 -20 -20 -20 -20 -20 -20 -20 -20 -20 -20 -20 -20 -20 -20 -20 -20 -20 -20 -20 -20 -20 -20
-20 -20 -20 -20 -20 -20 -20 -20 -20 -20 -20 -20 -20 -20 -20 -20 -20 -20 -20 -20 -20 -20 -20 -20 -20 -20 -20 -20 -20 -20 -20 -20 -20 -20 -20 -20 -20 -20 -20 -20 -20 -20 -20 -20 -20 -20 -20
-20 -20 -20 -20 -20 -20 -20 -20 -20 -20 -20 -20 -20 -20 -20 -20 -20 -20 -20 -20 -20 -20 -20 -20 -20 -20 -20 -20 -20 -20 -20 -20 -20 -20 -20 -20 -20 -20 -20 -20 -20 -20 -20 -20 -20 -20 -20
-20 -20 -20 -20 -20 -20 -20 -20 -20 -20 -20 -20 -20 -20 -20 -0 -20 -20 -20 -20 -20 -20 -20 -16 -19 -20 -20 -20 -20 -20 -20 -20 -20 -20 -20 -20 -20 -20 -20 -20 -20 -20 -20 -20 -20 -20 -20
-18 -20 -20 -20 -20 -20 -20 -20 -20 -20 -20 -20 -20 -20 -20 -20 -20 -20 -20 -20 -20 -20 -20 -15 -10 -20 -20 -20 -20 -20 -20 -20 -20 -20 -20 -20 -20 -20 -20 -20 -20 -20 -20 -20 -20 -20 -20
12 -4 -20 -20 -20 -20 -20 -20 -20 -20 -20 -19 -18 -15 -20 10 -20 -20 -20 -20 -18 -20 -20 -20 -20 -20 -20 -20 -20 -20 -20 -20 -20 -20 -20 -20 -20 -20 -20 -20 -20 -20 -20 -20 -20 -20 -20
16 11 -1 13 -20 -20 -20 -13 -20 -20 13 15 4 -11 -9 13 -15 -20 -1 -20 13 3 -19 -20 -20 -20 -20 -20 -20 -20 -20 -20 -20 -20 -20 -20 -20 -20 -20 -20 -20 -20 -20 -20 -20 -20 -20
15 12 -8 -7 16 14 -3 -13 -20 -3 8 7 25 20 11 -7 -6 23 18 25 -3 7 -20 -20 -20 -20 -20 -20 -20 -20 -20 -20 -20 -20 -20 -20 -20 -20 -20 -20 -20 -20 -20 -20 -20 -20 -20
-20 16 16 8 25 20 1 -20 -20 -20 -18 19 19 27 27 31 9 0 14 23 26 -1 -20 -20 -20 -20 -20 -20 -20 -20 -20 -20 -20 -20 -20 -20 -20 -20 -20 -20 -20 -20 -20 -20 -20 -20 -20
-3 12 11 7 14 -20 2 12 -1 -15 12 27 30 35 35 27 26 28 26 35 15 -12 -20 -20 -20 -20 -20 -20 -20 -20 -20 -20 -20 -20 -20 -20 -20 -20 -20 -20 -20 -20 -20 -20 -20 -20 -20
-18 -3 3 -12 21 15 6 19 23 24 25 31 34 33 29 30 33 31 31 21 12 -11 -20 -20 -20 -20 -20 -9 -19 -20 -20 -20 -20 -20 -20 -20 -20 -20 -20 -20 -20 -20 -20 -20 -20 -20 -20
-14 6 11 -5 18 19 27 19 13 25 31 38 37 38 31 23 37 32 34 13 -0 -13 -20 -20 -20 -20 -20 -16 -20 -20 -20 -20 -20 -20 -20 -20 -20 -20 -20 -20 -20 -20 -20 -20 -16 -20 -3
-20 -20 -5 9 8 -8 15 25 20 26 31 35 38 36 29 24 36 33 17 10 9 -16 -20 -20 -20 -20 -20 -18 20 8 -18 5 -5 -20 -20 -20 -20 -20 -20 -20 -20 -20 -20 -20 -20 -20 -20
1 -18 -4 -12 -8 10 7 17 23 30 27 27 35 36 34 27 33 28 14 11 -10 -4 -4 -19 -20 -15 -7 5 7 8 -9 12 9 -17 -10 -19 -9 -20 -20 -20 -20 -20 -20 -20 -19 -19 -19
11 -3 -18 -7 -7 4 4 7 36 21 21 23 32 39 39 37 29 20 13 16 19 7 -3 15 -13 16 16 14 10 12 23 5 -16 -20 -20 -6 -17 -20 -20 -20 -20 -20 -20 -20 -9 -5 -13
1 -20 -20 -12 -8 -6 -20 2 22 28 31 33 39 37 36 28 27 19 7 12 2 16 26 22 26 26 15 18 19 19 1 7 -6 -7 -13 -5 -19 -20 -20 -20 -20 -20 -20 -20 -20 -19 -9
-20 -20 -18 -20 -20 -0 -8 1 6 25 23 33 33 38 36 30 21 17 25 30 14 21 29 32 7 22 35 29 9 16 15 11 -2 -10 -15 -6 -19 -20 -20 -20 -20 -20 -20 -20 -20 -20 -20
-14 2 -20 -16 -18 -20 -20 -3 -2 6 26 32 35 33 29 25 30 29 32 30 23 12 29 33 28 36 29 19 25 21 20 8 -17 -20 -18 -19 -18 -14 -20 -20 -20 -20 -20 -20 -20 -20 -20
-20 -20 -20 -20 13 -5 -20 -0 15 13 4 16 29 23 23 17 24 20 27 23 20 27 37 36 31 32 24 25 19 2 -12 -20 -20 -2 -3 -20 -15 11 -12 6 3 -20 -20 -20 -20 -20 -20
-20 -20 -10 -20 -20 8 9 8 16 13 23 27 29 30 26 18 32 33 35 33 36 37 37 35 31 28 27 16 1 -8 -12 -20 -20 -20 -20 -19 -11 8 11 -7 -20 -20 -20 -20 -19 -20 -20
-20 -20 -20 -20 -20 3 8 24 32 28 25 23 25 23 22 26 28 31 37 34 29 27 29 34 28 18 10 5 5 -7 -19 -20 -20 -20 -20 -20 -13 1 8 8 0 -20 -20 -20 -19 -19 -20
-20 -12 -12 -10 10 25 27 27 25 25 27 21 29 31 33 36 40 37 31 25 30 29 19 32 26 18 8 9 6 -2 -20 -20 -20 -20 -20 -20 -20 -12 -9 14 10 -20 -20 -20 -7 -20 -20
29 26 28 28 26 27 27 22 26 28 32 30 38 38 34 34 34 31 30 33 32 26 13 6 4 2 2 -4 -17 -20 -20 -20 -20 -20 -20 -20 -20 -10 8 20 7 -20 -20 -20 -20 -20 8
35 31 30 31 28 27 32 32 33 35 31 31 31 29 23 23 27 23 25 20 13 14 12 9 2 -3 -2 -4 -11 -20 -20 -20 -20 -20 -20 -20 -19 -19 1 -19 -10 -14 17 -20 -20 -20 9

GFSGBSN_prec_radar_201.txt.gz
Reflectivity
-20 -20 -20 -20 -20 -20 -20 -20 -20 -20 -20 -20 -20 -20 -20 -20 -20 -20 -20 -19 -20 -20 -20 -20 -20 -20 -20 -20 -20 -20 -20 -20 -20 -20 -20 -20 -20 -20 -20 -20 -20 -20 -20 -20 -20 -20 -20
-20 -20 -20 -20 -20 -20 -20 -20 -20 -20 -20 -20 -20 -20 -20 -20 -20 -20 -20 -20 -20 -20 -20 -20 -20 -20 -20 -20 -20 -20 -20 -20 -20 -20 -20 -20 -20 -20 -20 -20 -20 -20 -20 -20 -20 -20 -20
-20 -20 -20 -20 -20 -20 -20 -20 -20 -20 -20 -20 -20 -20 -20 -20 -20 -20 -20 -20 -20 -20 -20 -20 -20 -20 -20 -20 -20 -20 -20 -20 -20 -20 -20 -20 -20 -20 -20 -20 -20 -20 -20 -20 -20 -20 -20
-20 -20 -20 -20 -20 -20 -20 -20 -20 -20 -20 -20 -20 -20 -20 -20 -20 -19 -20 -20 -20 -20 -20 -20 -20 -20 -20 -20 -20 -20 -20 -20 -20 -20 -20 -20 -20 -20 -20 -20 -20 -20 -20 -20 -20 -20 -20
-20 -20 -20 -20 -20 -20 -20 -20 -20 -20 -20 -20 -20 -20 -20 -20 -20 -20 -20 -20 -20 -20 -20 -20 -20 -20 -20 -20 -20 -20 -20 -20 -20 -20 -20 -20 -20 -20 -20 -20 -20 -20 -20 -20 -20 -20 -20
-20 -20 -20 -20 -20 -20 -20 -20 -20 -20 -20 -20 -20 -20 -20 -20 -20 -20 -20 -20 -20 -20 -20 -20 -20 -20 -20 -20 -20 -20 -20 -20 -20 -20 -20 -20 -20 -20 -20 -20 -20 -20 -20 -20 -20 -20 -20
-20 -20 -20 -20 -20 -20 -20 -20 -20 -20 -20 -20 -20 -20 -20 -20 -20 -20 -20 -20 -20 -20 -20 -20 -20 -20 -20 -20 -20 -20 -20 -20 -20 -20 -20 -20 -20 -20 -20 -20 -20 -20 -20 -20 -20 -20 -20
-20 -20 -20 -20 -20 -20 -20 -20 -20 -20 -20 -20 -20 -20 -20 -20 -20 -20 -20 -20 -20 -20 -12 -20 -20 -20 -20 -20 -20 -20 -20 -20 -20 -20 -20 -20 -20 -20 -20 -20 -20 -20 -20 -20 -20 -20 -20
12 -20 -20 -20 -20 -20 -20 -20 -20 -20 -20 -20 -20 -20 -20 -20 -19 -20 -20 -20 -20 -20 -20 2 -20 -20 -20 -20 -20 -20 -20 -20 -20 -20 -20 -20 -20 -20 -20 -20 -20 -20 -20 -20 -20 -20 -20
-20 5 4 -20 -20 -20 -20 -20 -20 -20 -20 -20 -20 -20 -20 -20 -20 -20 -20 -20 -20 -20 -20 -19 -20 -20 -20 -20 -20 -20 -20 -20 -20 -20 -20 -20 -20 -20 -20 -20 -20 -20 -20 -20 -20 -20 -20
18 -16 10 7 -18 -20 -20 -20 -20 -20 -20 -20 -20 -20 -20 -20 -20 -20 -20 -20 -20 -20 -7 -20 -20 -20 -19 -20 -20 -20 -20 -20 -20 -20 -20 -20 -20 -20 -20 -20 -20 -20 -20 -20 -20 -20 -20
-20 15 17 25 2 -13 -19 -17 -20 -20 -20 -20 -20 -10 -18 -19 1 -15 -12 -20 -16 12 8 -20 -20 -20 -20 -20 -20 -20 -20 -20 -20 -20 -20 -20 -20 -20 -20 -20 -20 -20 -20 -20 -20 -20 -20
-5 -18 -3 15 22 24 1 -18 -16 -11 -20 -20 12 16 3 -1 -10 29 10 -3 29 20 -1 -20 -20 -20 -20 -20 -20 -20 -20 -20 -20 -20 -20 -20 -20 -20 -20 -20 -20 -20 -20 -20 -20 -20 -20
-20 -2 -19 12 18 8 25 14 17 17 -20 -18 -12 24 18 21 29 22 27 22 35 15 -10 -20 -20 -20 -20 -20 -20 -20 -20 -20 -20 -20 -20 -20 -20 -20 -20 -20 -20 -20 -20 -20 -20 -20 -20
-20 -20 6 -16 -18 8 0 14 -19 -16 29 20 28 17 20 19 10 23 34 40 26 0 -8 -12 -19 -20 -20 -20 -20 -20 -20 -20 -20 -20 -20 -20 -20 -20 -20 -20 -20 -20 -20 -20 -20 -20 -20
-20 -20 -20 -18 -16 -18 6 12 13 18 33 23 25 29 16 10 30 34 40 31 12 -10 -18 -9 0 -20 -20 -20 -18 -20 -20 -20 -20 -20 -20 -20 -20 -20 -20 -20 -20 -20 -20 -20 -11 -18 -20
-13 -20 -20 -20 -20 -20 -19 -6 23 4 23 33 38 34 32 21 28 38 36 31 15 4 -9 3 15 9 -19 -19 -19 -1 -19 -20 -20 -20 -20 -20 -20 -20 -20 -20 -20 -20 -20 -15 6 4 -19
-20 -12 -3 -4 -20 -20 -20 10 7 20 24 33 37 33 35 21 32 33 30 18 16 5 19 12 -8 8 -0 3 -17 -1 -2 -20 -20 -20 -20 6 -20 -20 -20 -20 -20 -20 -20 -20 3 -2 -20
-20 -20 -20 3 10 10 -4 -20 -18 11 33 29 36 33 29 33 28 28 18 22 20 16 2 10 3 -5 -7 24 15 16 -14 7 -20 -20 6 -4 1 -20 -20 -20 -20 -20 -20 -20 3 1 -20
-6 -20 -20 -20 7 8 4 4 0 7 33 32 35 30 36 31 22 9 6 18 25 24 26 28 21 1 -4 14 5 -17 8 14 6 9 13 1 -20 -20 -20 -20 -20 -20 -20 -0 18 17 -1
7 -20 -20 -14 1 3 9 1 2 14 22 35 36 36 31 36 19 -0 4 28 16 3 17 25 33 11 -2 8 25 25 31 29 28 21 15 0 -20 -20 -20 -20 -20 -20 -20 -20 -20 -20 -4
-3 -4 -20 -13 3 7 6 13 10 11 24 26 32 39 35 35 26 17 8 12 -10 -5 6 27 29 27 31 27 24 19 31 35 28 26 18 16 9 -0 -20 -20 -20 -20 -20 -20 -20 -20 -20
-3 -3 -8 -20 -20 0 4 13 15 17 29 29 35 33 32 28 33 22 25 5 -1 11 7 23 27 31 34 26 21 32 30 25 21 28 28 28 19 12 -3 -19 -20 -20 -20 -20 -20 -20 -20
-20 -14 -8 9 6 7 9 11 15 14 16 24 27 16 23 27 29 23 -6 11 -9 13 22 29 29 31 30 24 24 32 27 25 16 16 26 25 12 3 0 -2 -13 -20 -20 -20 -20 -20 -20
-3 -7 -18 -20 -20 6 4 13 18 16 13 25 27 21 22 27 29 28 32 29 23 24 34 34 33 28 33 30 26 12 2 -2 -15 -1 2 11 10 10 9 -0 -20 -20 -20 -20 -20 -20 -20
3 5 -9 -20 -18 1 12 8 15 18 24 31 27 21 20 30 29 20 17 6 6 24 28 31 30 30 30 33 17 12 -5 -19 -10 -8 2 7 11 4 11 4 -20 -20 -20 -20 -18 -17 -20
15 -17 12 4 -3 -1 12 4 13 19 26 33 29 23 16 25 32 18 5 26 24 25 23 31 35 31 22 8 9 8 4 -20 -18 -8 -3 1 -0 4 8 10 -12 -20 -20 -20 -4 -19 -20
-20 -20 -20 3 0 0 24 15 13 25 31 23 26 21 17 27 37 33 22 24 31 24 10 30 22 26 17 6 4 2 -1 -13 -18 -5 -7 -17 -20 -9 9 10 9 -20 -20 -20 -20 -20 -20
-15 -20 -20 -3 2 -16 24 23 33 28 28 26 22 26 18 28 35 33 31 30 31 29 22 24 12 7 5 -1 -6 -13 -15 -20 -20 -20 -20 -20 -20 -20 -18 -20 -20 -20 -20 -20 -20 -20 3

GFSGBSN_prec_radar_207.txt.gz
Reflectivity
-20 -20 -20 -20 -20 -20 -20 -20 -20 -20 -20 -20 -20 -20 -20 -20 -20 -20 -20 -20 -20 -20 -20 -20 -20 -20 -20 -20 -20 -20 -20 -20 -20 -20 -20 -20 -20 -20 -20 -20 -20 -20 -20 -20 -20 -20 -20
-20 -20 -20 -20 -20 -20 -20 -20 -20 -20 -20 -20 -20 -20 -20 -20 -20 -20 -20 -20 -20 -20 -20 -20 -20 -20 -20 -20 -20 -20 -20 -20 -20 -20 -20 -20 -20 -20 -20 -20 -20 -20 -20 -20 -20 -20 -20
-20 -20 -20 -20 -20 -20 -20 -20 -20 -20 -20 -20 -20 -20 -20 -20 -20 -20 -20 -20 -20 -20 -20 -20 -20 -20 -20 -20 -20 -20 -20 -20 -20 -20 -20 -20 -20 -20 -20 -20 -20 -20 -20 -20 -20 -20 -20
-20 -20 -20 -20 -20 -20 -20 -20 -20 -20 -20 -20 -20 -20 -20 -20 -20 -20 -20 -20 -20 -20 -20 -20 -20 -20 -20 -20 -20 -20 -20 -20 -20 -20 -20 -20 -20 -20 -20 -20 -20 -20 -20 -20 -20 -20 -20
-20 -20 -20 -20 -20 -20 -20 -20 -20 -20 -20 -20 -20 -20 -20 -20 -20 -20 -20 -20 -20 -20 -20 -20 -20 -20 -20 -20 -20 -20 -20 -20 -20 -20 -20 -20 -20 -20 -20 -20 -20 -20 -20 -20 -20 -20 -20
-20 -20 -20 -20 -20 -20 -20 -20 -20 -20 -20 -20 -20 -20 -20 -20 -20 -20 -20 -20 -20 -14 -10 -20 -20 -20 -20 -20 -20 -20 -20 -20 -20 -20 -20 -20 -20 -20 -20 -20 -20 -20 -20 -20 -20 -20 -20
-20 -20 -20 -20 -20 -20 -20 -20 -20 -20 -20 -20 -20 -20 -20 -20 -20 -20 -20 -20 -20 -20 -20 -20 -20 -20 -20 -20 -20 -20 -20 -20 -20 -20 -20 -20 -20 -20 -20 -20 -20 -20 -20 -20 -20 -20 -20
-20 -20 -20 -20 -20 -20 -20 -20 -20 -20 -20 -20 -20 -20 -20 -20 -20 -20 -20 -20 -20 -20 -20 -20 -20 -20 -20 -20 -20 -20 -20 -20 -20 -20 -20 -20 -16 -18 -20 -20 -20 -20 -20 -20 -20 -20 -20
-20 -20 -20 -20 -20 -20 -20 -20 -20 -20 -20 -20 -20 -20 -20 -20 -20 -20 -20 -20 -20 -20 -20 -20 -20 -20 -20 -20 -20 -20 -20 -20 -20 -20 -20 -13 -13 -16 -20 -13 -10 -20 -20 -20 -20 -20 -20
-19 -20 -20 -20 -20 -20 -20 -20 -20 -20 -20 -20 -20 -20 -20 -20 -20 -20 -20 -20 -20 -20 -20 -20 -20 -20 -20 -20 -20 -20 -20 -14 -20 -6 -6 1 -16 -20 -20 -20 -20 -20 -20 -20 -20 -20 -20
16 12 11 -20 -20 -18 -20 -20 -20 -20 -20 -20 -20 -20 -20 -20 -20 -20 -20 -20 -20 -20 8 -20 -20 -20 -20 -20 -20 -20 -20 -20 -20 -20 -20 -20 -20 -20 -20 -20 -20 -20 -20 -20 -20 -20 -20
23 20 15 11 5 -5 -20 -20 -20 -20 -20 -20 -20 -20 -20 -20 -20 -20 -20 -20 -20 -3 -14 -20 -20 -20 -20 -20 -20 -20 -20 -20 -20 -20 -20 -20 -20 -20 -20 -20 -20 -20 -20 -20 -20 -20 -20
28 21 11 14 11 4 4 -20 -20 -20 -20 -20 -20 -20 -20 -20 -6 -20 -20 -15 2 13 -13 -20 -20 -20 -20 -20 -20 -20 -20 -20 -20 -20 -20 -20 -20 -20 -20 -20 -20 -20 -20 -20 -20 -20 -20
33 30 27 15 10 6 9 -17 -4 -19 -20 -20 -20 -20 -20 -20 -20 -20 -7 -16 20 10 -12 -20 -12 -20 -20 -20 -20 -20 -20 -20 -20 -20 -20 -20 -20 -20 -20 -20 -20 -20 -20 -20 -20 -20 -20
25 22 18 26 5 20 19 12 -17 -16 19 31 19 11 -1 5 -17 1 32 23 12 1 -1 -13 -16 -5 -20 -20 -20 -20 -20 -20 -20 -20 -20 -20 -20 -20 -20 -20 -20 -20 -20 -20 -20 -20 -20
21 18 13 24 26 21 17 10 -3 -4 23 32 29 28 37 20 16 29 36 30 12 -4 -17 -11 -4 -19 -20 -20 -13 -20 -20 -20 -20 -20 -17 -20 -20 -20 -20 -20 -20 -20 -20 -20 -20 -20 -20
29 34 23 24 24 19 26 14 -17 3 29 21 39 27 32 4 24 36 32 10 -7 -20 4 -20 4 -13 -20 -20 -16 -4 -20 -20 -20 -10 -20 -20 -18 -20 -14 -20 -20 -20 -20 -20 -20 -20 -20
32 26 25 27 17 22 17 21 16 8 29 31 30 31 28 12 26 37 25 -6 -20 -20 -20 -20 -20 -20 -18 -13 -12 -19 -20 -19 -11 -3 5 2 16 -20 -20 -20 -20 -20 -20 -20 -20 -20 -20
1 5 3 23 11 26 22 16 17 27 23 27 35 32 30 31 28 19 14 -16 -8 -19 -12 -15 -19 -20 -19 24 15 7 -7 -17 6 30 22 15 5 -20 -20 -18 -19 -20 -20 -20 -20 -20 -20
-20 -14 -20 -14 15 29 27 19 29 27 26 21 35 38 33 30 28 3 8 -8 -9 5 2 -15 -13 -5 24 12 5 4 17 4 -16 17 17 6 10 -20 -20 -2 19 -7 -20 -20 -20 -19 -20
-20 -20 -20 -11 -20 8 13 19 14 24 30 21 38 38 37 15 15 6 -6 -17 -18 3 9 -8 -7 -1 9 21 23 26 13 26 11 4 9 21 14 -20 -20 -20 -10 -17 -18 -20 -20 -20 -6
-20 -20 -20 -20 -20 10 25 20 7 19 25 31 36 36 31 27 3 -3 1 2 -1 -16 2 3 -10 -20 7 28 22 30 29 19 -2 -0 6 11 -15 -20 -20 -20 -20 -20 -20 -20 -4 -20 -20
-16 -20 -20 -20 -20 6 3 3 6 13 20 23 34 35 33 23 14 -5 -4 -20 -9 -18 -9 13 11 -19 35 31 31 29 24 29 25 -2 -0 8 -2 13 -20 -20 0 7 -20 -20 -20 -20 -20
4 9 -20 -20 -20 6 9 3 8 16 18 17 22 24 34 34 20 -5 -20 -20 -19 8 5 -1 17 26 29 22 27 30 30 25 18 -2 -2 2 -11 13 -1 -8 2 -20 -20 -20 -20 -20 -20
-19 -20 -20 -7 -10 9 10 8 0 13 21 18 21 34 34 33 28 13 -8 -10 -20 11 35 35 27 23 26 23 37 27 24 24 16 12 3 4 2 15 8 5 -20 -20 -20 -20 -20 -20 -20
-20 -20 -20 -20 4 -4 10 9 10 -13 22 21 16 27 36 37 34 18 11 4 4 7 33 33 31 25 30 35 39 22 -0 -7 14 4 8 10 11 19 15 8 -11 -19 -20 -20 -20 -20 -20
-20 -20 -20 -20 -20 7 9 11 -19 -11 18 18 13 22 35 39 37 28 24 23 6 -8 18 32 28 37 31 35 30 15 11 3 13 -17 11 17 23 10 12 15 -2 -20 0 -20 -20 -20 -20
-20 -20 -20 -5 -14 -20 -13 14 10 -11 7 17 15 18 16 30 36 36 28 28 5 5 4 30 30 34 33 30 29 16 11 2 -1 -20 -20 -5 11 14 14 17 14 -20 -20 -20 -20 -20 -20
-20 -20 -20 -4 7 4 -17 -12 14 17 20 23 18 -17 13 31 37 34 27 27 14 8 14 28 30 32 30 29 30 26 -8 6 1 18 4 2 -19 3 -2 -10 -20 -20 -20 -20 -20 -20 -20

GFSGBSN_prec_radar_210.txt.gz
Reflectivity
-20 -20 -20 -20 -20 -20 -20 -20 -20 -20 -20 -20 -20 -20 -20 -20 -20 -20 -20 -20 -20 -20 -20 -20 -20 -20 -20 -20 -20 -20 -20 -20 -20 -20 -20 -20 -20 -20 -20 -20 -20 -20 -20 -20 -20 -20 -20
-20 -20 -20 -20 -20 -20 -20 -20 -20 -20 -20 -20 -20 -20 -20 -20 -20 -20 -20 -20 -20 -20 -20 -20 -20 -20 -20 -20 -20 -20 -20 -20 -19 -20 -20 -20 -20 -20 -20 -20 -20 -20 -20 -20 -20 -20 -20
-20 -20 -20 -20 -20 -20 -20 -20 -20 -20 -20 -20 -20 -20 -20 -20 -20 -20 -20 -20 -20 -20 -20 -20 -20 -20 -20 -20 -20 -20 -20 -20 -20 -20 -20 -20 -20 -20 -20 -20 -20 -20 -20 -20 -20 -20 -20
-20 -20 -20 -20 -20 -20 -20 -20 -20 -20 -20 -20 -20 -20 -20 -20 -20 -20 -20 -20 -20 -20 -20 -20 -20 -20 -20 -20 -20 -20 -20 -20 -20 -20 -20 -20 -20 -20 -20 -20 -20 -20 -20 -20 -20 -20 -20
-20 -20 -20 -20 -20 -20 -20 -20 -20 -20 -20 -20 -20 -20 -20 -20 -20 -20 -20 -20 -20 -20 -20 -20 -20 -20 -20 -20 -20 -20 -20 -20 -20 -20 -20 -20 -20 -20 -20 -20 -20 -20 -20 -20 -20 -20 -20
-20 -20 -20 -19 -20 -20 -20 -20 -20 -20 -20 -20 -20 -20 -20 -20 -20 -20 -20 -20 -20 -20 -20 -20 -20 -20 -20 -20 -20 -20 -20 -20 -20 -20 -20 -20 -20 -20 -20 -20 -20 -20 -20 -20 -20 -20 -20
-20 -20 -20 -20 -20 -20 -20 -20 -20 -20 -20 -20 -20 -20 -20 -20 -20 -20 -20 -20 -20 -20 -20 -20 -20 -20 -20 -20 -20 -20 -20 -20 -20 -20 -20 -20 -20 -20 -20 -20 -20 -20 -20 -20 -20 -20 -20
-20 -20 -20 -20 -20 -20 -20 -20 -20 -20 -20 -20 -20 -20 -20 -20 -20 -20 -20 -20 -20 -20 -20 -20 -20 -20 -20 -20 -20 -20 -20 -20 -20 -20 -20 -20 -19 -19 -19 -20 -20 -20 -20 -20 -20 -20 -20
-20 -20 -20 -20 -20 -20 -20 -20 -20 -20 -20 -20 -20 -20 -20 -20 -20 -20 -20 -20 -20 -20 -20 -20 -20 -20 -20 -20 -20 -20 -20 -20 -20 -20 -20 -20 -18 -18 -4 -8 -20 -20 -20 -19 -20 -20 -20
-20 -3 -20 -20 -20 -20 -20 -20 -20 -20 -20 -20 -20 -20 -20 -20 -20 -20 -20 -20 -20 -20 -20 -20 -20 -20 -20 -20 -20 -20 -20 -20 -20 -20 -12 -20 -6 -7 -20 -20 -20 -20 -20 -20 -20 -20 -20
-8 16 -19 6 -20 -20 -20 -20 -20 -20 -20 -20 -20 -20 -20 -20 -20 -7 -20 -20 -20 -20 -3 -20 -20 -20 -20 -20 -20 -20 -20 -20 -20 -20 -20 -20 -20 -20 -20 -20 -20 -20 -20 -20 -20 -20 -20
-14 3 -1 18 -10 -18 5 -20 -20 -20 -20 -20 -20 -20 -20 -20 -20 -20 -20 -20 -20 -9 4 -20 -20 -20 -20 -20 -20 -20 -20 -20 -20 -20 -20 -20 -20 -20 -20 -20 -20 -20 -20 -20 -20 -20 -20
15 32 24 12 20 14 0 -20 -10 -20 -20 -20 -20 -20 -20 -20 -20 -20 -20 -20 2 15 -20 -20 -20 -20 -20 -20 -20 -20 -20 -20 -20 -20 -20 -20 -20 -20 -20 -20 -20 -20 -20 -20 -20 -20 -20
20 25 23 26 22 22 22 8 -18 16 -7 0 -20 -20 -20 -20 4 -20 -20 -20 5 5 -20 -20 -20 -20 -20 -20 -20 -20 -20 -20 -20 -20 -20 -20 -20 -20 -20 -20 -20 -20 -20 -20 -20 -20 -20
23 28 31 25 22 32 21 26 5 6 23 12 10 -18 -4 -20 -20 -4 -2 12 -15 -19 -20 -20 -20 -20 -20 -20 -20 -20 -20 -20 -20 -20 -20 -20 -20 -20 -20 -20 -20 -20 -20 -20 -20 -20 -20
26 23 -5 15 19 28 24 27 26 16 20 23 31 19 9 -14 -20 20 20 18 9 -19 -20 -20 -20 -20 -20 -20 -17 -18 -20 -20 -20 -20 -20 -20 -20 -20 -20 -20 -20 -20 -20 -20 -16 -10 -20
25 13 7 13 15 31 26 29 34 28 28 36 35 36 27 21 32 38 28 13 -4 -10 -19 -20 -20 -18 -10 -20 -20 -20 -16 -19 -20 -20 -20 -20 -20 -20 -20 -20 -20 -20 -20 -12 -20 -20 -20
10 -12 5 8 4 18 26 28 37 33 21 38 37 41 34 22 38 37 14 -15 -20 -20 -20 -20 -20 -9 -18 -20 -20 -20 -20 -11 18 2 -20 -9 -20 -20 -20 -20 -20 -20 -20 -20 -20 -20 -20
-5 -17 -16 -18 6 18 27 27 35 28 32 37 40 35 34 31 16 29 10 -4 -20 -20 -20 -20 -20 -20 -20 -8 13 -15 -20 -18 16 15 17 -1 31 -3 -20 -20 -20 -20 -20 -20 -20 -20 -20
6 5 3 -14 -20 10 25 22 21 29 32 37 41 35 32 33 24 2 -17 -1 -4 -10 -20 -20 -14 -12 -11 -2 -17 -20 -20 -20 -6 16 27 29 25 -20 -20 -20 -6 -8 -20 -20 -20 -20 -20
-15 -19 -15 12 15 11 20 27 28 34 37 38 42 39 29 32 26 13 -15 -20 -7 14 12 -6 -9 -4 -9 -18 -15 -10 -15 -13 -13 25 34 35 23 -20 -20 -20 -10 -20 -20 -20 -20 -20 -20
-20 -5 6 5 7 -20 8 31 29 38 37 37 41 38 33 27 20 19 10 -6 -20 -19 -3 2 0 -3 -20 -20 -6 -3 14 26 15 32 30 27 9 -20 -20 -20 -17 -12 -20 -20 -20 -20 -20
9 -10 -20 -20 -20 -20 -4 18 16 28 33 41 39 35 30 31 27 19 8 -20 -19 -20 -15 -20 -17 -6 14 11 -10 31 37 32 26 25 20 24 12 17 7 -20 -3 13 -20 -20 -20 -20 -20
11 14 -7 -20 -20 -15 -20 -5 11 17 28 30 36 37 33 33 29 29 1 -20 -15 -18 -20 -20 -14 19 23 4 3 25 26 33 30 29 -5 12 20 30 18 0 17 -20 -20 -20 -20 -20 -20
8 -20 13 8 -20 -15 -18 -20 -17 13 18 18 12 29 40 38 32 30 26 10 4 7 26 30 29 19 20 27 30 30 29 35 33 23 12 7 0 21 19 8 -19 -20 -20 -20 -20 -20 -20
14 12 -2 12 -19 -20 -20 -19 1 13 8 27 16 19 20 35 35 26 21 11 18 24 22 31 27 25 12 26 32 27 24 23 17 5 6 16 20 18 24 15 2 -20 -20 -20 -20 -20 -20
9 12 11 10 -6 -20 -20 -14 -20 12 -1 19 18 21 19 21 33 27 23 24 19 21 26 30 31 25 30 32 24 26 28 25 22 14 3 15 21 21 10 17 8 -20 -16 -20 -20 -20 -20
-20 0 10 -16 -11 -20 -20 -20 15 9 -8 26 5 20 18 17 30 26 28 31 22 31 28 28 25 25 32 27 31 32 34 29 25 21 10 -3 9 10 7 21 19 -20 -20 -20 -20 -20 -20
-20 18 4 -5 12 -20 -20 -20 10 -20 16 24 21 18 8 16 15 19 25 30 31 18 9 25 26 28 22 32 35 36 36 29 13 20 12 7 -19 -8 -15 -20 -20 -20 1 -18 -20 -20 -20